TimeEDT,TemperatureF,Dew PointF,Humidity,Sea Level PressureIn,VisibilityMPH,Wind Direction,Wind SpeedMPH,Gust SpeedMPH,PrecipitationIn,Events,Conditions,WindDirDegrees,DateUTC
12:15 AM,48.2,46.4,93,30.06,10.0,Calm,Calm,-,N/A,,Clear,0,2012-09-18 04:15:00
12:35 AM,48.2,46.4,93,30.06,10.0,Calm,Calm,-,N/A,,Clear,0,2012-09-18 04:35:00
12:55 AM,46.4,46.4,100,30.06,10.0,Calm,Calm,-,N/A,,Clear,0,2012-09-18 04:55:00
1:15 AM,48.2,46.4,93,30.06,10.0,Calm,Calm,-,N/A,,Clear,0,2012-09-18 05:15:00
1:35 AM,46.4,46.4,100,30.07,10.0,Calm,Calm,-,N/A,,Clear,0,2012-09-18 05:35:00
1:55 AM,46.4,46.4,100,30.06,10.0,Calm,Calm,-,N/A,,Clear,0,2012-09-18 05:55:00
2:15 AM,46.4,44.6,93,30.06,10.0,Calm,Calm,-,N/A,,Clear,0,2012-09-18 06:15:00
2:35 AM,46.4,44.6,93,30.06,10.0,Calm,Calm,-,N/A,,Clear,0,2012-09-18 06:35:00
2:55 AM,46.4,44.6,93,30.05,10.0,Calm,Calm,-,N/A,,Clear,0,2012-09-18 06:55:00
3:35 AM,46.4,46.4,100,30.05,10.0,Calm,Calm,-,N/A,,Clear,0,2012-09-18 07:35:00
4:15 AM,46.4,46.4,100,30.05,10.0,Calm,Calm,-,N/A,,Clear,0,2012-09-18 08:15:00
4:35 AM,48.2,48.2,100,30.05,10.0,Calm,Calm,-,N/A,,Clear,0,2012-09-18 08:35:00
4:55 AM,46.4,44.6,93,30.05,10.0,Calm,Calm,-,N/A,,Clear,0,2012-09-18 08:55:00
5:15 AM,46.4,46.4,100,30.05,10.0,Calm,Calm,-,N/A,,Clear,0,2012-09-18 09:15:00
5:35 AM,48.2,46.4,93,30.05,10.0,Calm,Calm,-,N/A,,Clear,0,2012-09-18 09:35:00
5:56 AM,48.2,48.2,100,30.04,2.0,Calm,Calm,-,N/A,,Clear,0,2012-09-18 09:56:00
6:15 AM,48.2,48.2,100,30.04,10.0,Calm,Calm,-,N/A,,Clear,0,2012-09-18 10:15:00
6:35 AM,48.2,44.6,87,30.04,10.0,Calm,Calm,-,N/A,,Clear,0,2012-09-18 10:35:00
6:55 AM,48.2,48.2,100,30.04,0.2,Calm,Calm,-,N/A,,Unknown,0,2012-09-18 10:55:00
7:15 AM,55.4,55.4,100,30.04,0.2,Calm,Calm,-,N/A,,Unknown,0,2012-09-18 11:15:00
7:35 AM,57.2,57.2,100,30.04,7.0,Calm,Calm,-,N/A,,Clear,0,2012-09-18 11:35:00
7:55 AM,60.8,59.0,94,30.05,10.0,South,3.5,-,N/A,,Clear,180,2012-09-18 11:55:00
8:15 AM,60.8,60.8,100,30.05,10.0,South,5.8,-,N/A,,Clear,180,2012-09-18 12:15:00
8:35 AM,62.6,60.8,94,30.05,10.0,South,9.2,-,N/A,,Clear,190,2012-09-18 12:35:00
8:55 AM,62.6,60.8,94,30.06,10.0,South,9.2,-,N/A,,Clear,180,2012-09-18 12:55:00
9:15 AM,62.6,59.0,88,30.06,10.0,South,9.2,-,N/A,,Clear,180,2012-09-18 13:15:00
9:35 AM,62.6,60.8,94,30.07,10.0,South,10.4,-,N/A,,Clear,180,2012-09-18 13:35:00
9:55 AM,64.4,60.8,88,30.06,10.0,South,13.8,20.7,N/A,,Clear,170,2012-09-18 13:55:00
10:15 AM,64.4,60.8,88,30.06,10.0,South,10.4,17.3,N/A,,Clear,190,2012-09-18 14:15:00
10:35 AM,64.4,60.8,88,30.06,10.0,South,11.5,20.7,N/A,,Clear,180,2012-09-18 14:35:00
10:55 AM,64.4,60.8,88,30.06,10.0,South,15.0,19.6,N/A,,Clear,180,2012-09-18 14:55:00
11:15 AM,66.2,60.8,83,30.05,10.0,SSE,16.1,21.9,N/A,,Partly Cloudy,160,2012-09-18 15:15:00
11:35 AM,66.2,60.8,83,30.04,10.0,South,12.7,23.0,N/A,,Clear,170,2012-09-18 15:35:00
11:55 AM,66.2,60.8,83,30.04,10.0,South,16.1,20.7,N/A,,Clear,170,2012-09-18 15:55:00
12:15 PM,66.2,59.0,78,30.04,10.0,South,15.0,21.9,N/A,,Clear,170,2012-09-18 16:15:00
12:35 PM,66.2,57.2,73,30.03,10.0,SSE,11.5,21.9,N/A,,Clear,150,2012-09-18 16:35:00
12:55 PM,66.2,60.8,83,30.02,10.0,SSE,15.0,21.9,N/A,,Clear,160,2012-09-18 16:55:00
1:15 PM,64.4,60.8,88,30.01,10.0,SSE,12.7,-,N/A,,Clear,160,2012-09-18 17:15:00
1:35 PM,64.4,60.8,88,30.00,10.0,SSE,11.5,-,N/A,,Clear,150,2012-09-18 17:35:00
1:55 PM,64.4,60.8,88,30.00,10.0,SSE,15.0,20.7,N/A,,Clear,160,2012-09-18 17:55:00
2:15 PM,64.4,60.8,88,29.99,10.0,SSE,11.5,21.9,N/A,,Clear,150,2012-09-18 18:15:00
2:35 PM,64.4,60.8,88,29.99,10.0,SSE,12.7,18.4,N/A,,Clear,150,2012-09-18 18:35:00
2:55 PM,64.4,60.8,88,29.99,10.0,SSE,10.4,17.3,N/A,,Partly Cloudy,150,2012-09-18 18:55:00
3:15 PM,64.4,60.8,88,29.98,10.0,SSE,10.4,18.4,N/A,,Mostly Cloudy,150,2012-09-18 19:15:00
3:35 PM,64.4,60.8,88,29.97,10.0,SSE,11.5,16.1,N/A,,Overcast,150,2012-09-18 19:35:00
3:55 PM,64.4,59.0,83,29.96,10.0,SE,13.8,-,N/A,,Overcast,140,2012-09-18 19:55:00
4:15 PM,64.4,59.0,83,29.96,10.0,SE,10.4,17.3,N/A,,Overcast,140,2012-09-18 20:15:00
4:35 PM,64.4,59.0,83,29.95,10.0,SE,13.8,20.7,N/A,,Mostly Cloudy,140,2012-09-18 20:35:00
4:55 PM,64.4,59.0,83,29.94,10.0,SE,13.8,17.3,N/A,,Partly Cloudy,140,2012-09-18 20:55:00
5:15 PM,64.4,60.8,88,29.93,10.0,SE,13.8,23.0,N/A,,Mostly Cloudy,140,2012-09-18 21:15:00
5:55 PM,62.6,60.8,94,29.92,10.0,SE,13.8,19.6,N/A,,Mostly Cloudy,140,2012-09-18 21:55:00
6:15 PM,62.6,60.8,94,29.91,10.0,SE,12.7,20.7,N/A,,Mostly Cloudy,140,2012-09-18 22:15:00
6:35 PM,62.6,59.0,88,29.90,10.0,SSE,13.8,20.7,0.01,,Overcast,150,2012-09-18 22:35:00
6:55 PM,62.6,59.0,88,29.90,10.0,SSE,13.8,20.7,0.02,,Overcast,150,2012-09-18 22:55:00
7:15 PM,62.6,60.8,94,29.90,10.0,SSE,15.0,21.9,0.01,,Overcast,150,2012-09-18 23:15:00
7:35 PM,62.6,60.8,94,29.90,10.0,SSE,15.0,19.6,0.01,,Mostly Cloudy,150,2012-09-18 23:35:00
7:55 PM,64.4,60.8,88,29.89,10.0,SSE,16.1,24.2,0.01,,Scattered Clouds,150,2012-09-18 23:55:00
8:15 PM,64.4,60.8,88,29.88,10.0,SSE,17.3,21.9,N/A,,Mostly Cloudy,160,2012-09-19 00:15:00
8:35 PM,64.4,60.8,88,29.87,10.0,SSE,17.3,24.2,N/A,,Mostly Cloudy,150,2012-09-19 00:35:00
8:55 PM,64.4,60.8,88,29.87,10.0,SSE,17.3,31.1,N/A,,Scattered Clouds,150,2012-09-19 00:55:00
9:15 PM,64.4,60.8,88,29.86,10.0,SSE,19.6,27.6,N/A,,Mostly Cloudy,160,2012-09-19 01:15:00
9:35 PM,64.4,60.8,88,29.86,10.0,SSE,19.6,25.3,N/A,,Mostly Cloudy,160,2012-09-19 01:35:00
9:55 PM,64.4,60.8,88,29.86,10.0,SSE,18.4,27.6,N/A,,Partly Cloudy,160,2012-09-19 01:55:00
10:15 PM,64.4,60.8,88,29.84,10.0,SSE,15.0,25.3,N/A,,Mostly Cloudy,160,2012-09-19 02:15:00
10:35 PM,64.4,62.6,94,29.84,10.0,SSE,18.4,25.3,N/A,,Overcast,160,2012-09-19 02:35:00
10:55 PM,64.4,62.6,94,29.83,10.0,SSE,16.1,28.8,N/A,,Overcast,160,2012-09-19 02:55:00
11:15 PM,64.4,62.6,94,29.82,10.0,SSE,17.3,26.5,N/A,,Mostly Cloudy,150,2012-09-19 03:15:00
11:55 PM,64.4,62.6,94,29.81,10.0,SSE,18.4,28.8,N/A,,Overcast,160,2012-09-19 03:55:00